www.pogodaiklimat.ru

Погода и климат >> Архив погоды >> Россия >> Коми >> Ижма


ПОГОДА в Ижме

  • Прогноз погоды в Ижме
  • Монитор погоды в Ижме

АРХИВ ПОГОДЫ в Ижме

Время (UTC), дата Ветер
(напр.,м/с)
 
Видим.   Явления Облачность Т
(С)
Тd
(С)
f
(%)
Тe
(С)
Тes
(С)
Комфортность P
(гПа)
Po
(гПа)
Тmin
(С)
Tmax
(С)
R
(мм)
R24
(мм)
S
(см)
21 13.08 штиль 0 20 км слаб. дождь 10/5 600 м
[Sc Ac As]
+11.0 +9.2 89 +10 +10 1015.1 1010.2
00 14.08 штиль 0 10 км слаб. морось {дождь} 10/10 210 м
[St]
+10.1 +9.5 96 +9 +9 1014.1 1009.2
03 14.08 штиль 0 4000 м дымка 10/10 150 м
[St]
+10.4 +9.8 96 +10 +10 1013.2 1008.3 +9.9 0.5
06 14.08 штиль 0 20 км {морось} 10/10 180 м
[St]
+12.2 +10.5 89 +12 +12 1012.6 1007.8
09 14.08 ЮВ 2 20 км 10/10 800 м
[Sc]
+14.8 +11.1 78 +15 +15 1012.0 1007.2
12 14.08 ЮВ 2 20 км 10/4 600 м
[Sc Ac As]
+14.8 +11.1 78 +15 +15 1011.4 1006.6
15 14.08 ЮВ 2 20 км 10/3 600 м
[Cb cap Ac lent Ci ing]
+13.9 +11.7 87 +13 +14 1011.6 1006.8 +15.8
18 14.08 Ю 1 10 км слаб. ливневой дождь 10/6 600 м
[Cb cap Ac und]
+12.2 +11.2 94 +12 +12 1011.5 1006.7
21 14.08 Ю 1 20 км {ливн. осадки} 10/4 600 м
[Cb cap Ac und]
+10.7 +10.2 97 +10 +10 1011.6 1006.7
00 15.08 Ю 2 20 км {ливн. осадки} 10/10 870 м
[Sc]
+10.8 +10.0 95 +9 +9 1011.6 1006.7
03 15.08 Ю 2 20 км 9/9 750 м
[Sc]
+11.5 +10.5 94 +10 +10 1011.5 1006.7 +10.4 1
06 15.08 ЮЗ 2 20 км 10/10 300 м
[Sc]
+13.7 +11.4 86 +13 +13 1012.0 1007.2
09 15.08 Ю 3 20 км 9/6 1000 м
[Cb cap Ac trans]
+18.1 +12.9 72 +18 +20 1011.6 1006.9
12 15.08 Ю 2 20 км 10/4 600 м
[Cb cap Ci ing]
+19.1 +11.9 63 +21 +23 комфорт 1011.0 1006.3
15 15.08 ЮВ 1 20 км 10/4 600 м
[Cb cap Cs]
+18.6 +14.1 75 +20 +21 1010.1 1005.4 +20.1
18 15.08 ЮВ 2 20 км 10/0
[Ac As]
+15.4 +11.9 80 +15 +15 1008.7 1004.0
21 15.08 ЮВ 2 4000 м слаб. дождь 10/0
[As op]
+13.4 +12.3 93 +13 +13 1007.3 1002.6
00 16.08 В 3 10 км слаб. дождь 10/8 270 м
[Frnb As op]
+13.2 +12.6 96 +12 +12 1003.4 998.7
03 16.08 Ю 3 20 км в посл. час дождь 10/8 210 м
[Frnb As op]
+14.1 +13.7 97 +13 +13 1001.8 996.1 +12.9 7
06 16.08 ЮЗ 5-10
{13}
20 км в посл. час ливневой дождь 6/6 300 м
[Cb cap]
+15.2 +13.0 87 +14 +15 1002.5 997.8
09 16.08 ЮЗ 5-11
{12}
20 км 10/10 870 м
[Cb cap]
+14.5 +9.3 71 +13 +13 1004.3 999.6
12 16.08 ЮЗ 4
{11}
20 км 10/10 960 м
[Cb cap]
+16.0 +9.4 65 +15 +15 1005.8 1001.1
15 16.08 ЮЗ 5-11
{13}
20 км {ливн. осадки} 10/6 600 м
[Cb cap Ac und]
+15.1 +10.4 73 +14 +14 1007.0 1002.3 +16.3 0.0
18 16.08 ЮЗ 3
{12}
20 км {ливн. осадки} 8/8 570 м
[Cb cap]
+13.7 +10.9 83 +13 +13 1008.4 1003.7
21 16.08 З 2 20 км 9/9 500 м
[Sc]
+12.8 +11.1 89 +12 +12 1011.2 1006.4
00 17.08 ЮЗ 2 20 км 10/10 630 м
[Sc]
+13.1 +11.7 91 +12 +12 1013.0 1008.2
03 17.08 З 2 20 км 10/10 570 м
[Sc]
+13.2 +11.7 91 +12 +12 1014.7 1009.9 +12.2
06 17.08 З 1 20 км 10/10 570 м
[Sc]
+15.0 +11.7 81 +16 +16 1016.0 1011.2
09 17.08 З 2 20 км {ливн. осадки} 9/5 600 м
[Cb cap Ci ing]
+18.1 +12.2 68 +19 +22 1016.3 1011.6
12 17.08 штиль 0 20 км в посл. час ливневой дождь 9/5 600 м
[Cb cap Ci ing]
+17.1 +14.5 85 +17 +19 1017.2 1012.5
15 17.08 штиль 0 20 км 8/6 600 м
[Cb cap Ac trans]
+16.0 +13.9 87 +16 +16 1018.0 1013.3 +19.2 1
18 17.08 штиль 0 20 км 6/0
[Ac trans Ci fib]
+11.1 +10.7 97 +10 +10 1019.0 1014.2
21 17.08 штиль 0 4000 м дымка 3/0
[Ci fib]
+6.3 +6.1 99 +5 +5 1020.4 1015.4
00 18.08 штиль 0 500 м туман ?/? +8.6 +8.6 100 +8 +8 1021.9 1017.0
03 18.08 штиль 0 500 м туман ?/? +11.2 +11.2 100 +10 +10 1023.4 1018.6 +5.1
06 18.08 С 1 20 км {туман} 10/8 240 м
[St Ac und]
+14.4 +12.9 91 +15 +15 1024.0 1019.2
09 18.08 штиль 0 20 км 9/8 480 м
[Cb cap Ac trans]
+17.1 +11.7 71 +17 +19 1024.3 1019.6
12 18.08 СВ 1 20 км 8/5 1000 м
[Cu Sc Ac trans]
+17.9 +11.1 64 +19 +21 1024.6 1019.9
15 18.08 штиль 0 20 км 1/1 1000 м
[Sc]
+17.9 +11.3 65 +18 +18 1025.0 1020.3 +19.5
18 18.08 В 1 20 км 3/3 600 м
[Sc]
+9.6 +9.2 97 +9 +9 1025.7 1020.8
21 18.08 штиль 0 20 км местами туман поземный ясно +6.1 +5.9 99 +5 +5 1026.4 1021.4
00 19.08 штиль 0 4000 м дымка ясно +3.7 +3.0 95 +3 +3 1027.0 1022.0
03 19.08 штиль 0 20 км ясно +11.2 +9.8 91 +11 +12 1027.2 1022.4 +3.1
06 19.08 штиль 0 20 км 3/0
[Ci fib]
+19.4 +12.4 64 +21 +28 комфорт 1026.4 1021.7
09 19.08 В 2 20 км 6/6 600 м
[Cb cap]
+21.0 +12.1 57 +24 +27 комфорт 1024.9 1020.2
12 19.08 В 3 20 км 4/4 1000 м
[Cb cap]
+23.2 +10.3 44 +25 +27 комфорт 1023.6 1018.9
15 19.08 В 2 20 км 4/3 1000 м
[Cb cap Ci fib]
+22.4 +10.9 48 +24 +25 комфорт 1022.5 1017.8 +24.3
18 19.08 В 2 20 км 3/0
[Ac trans]
+16.3 +13.4 83 +16 +16 1022.3 1017.6
21 19.08 ЮВ 2 20 км 6/0
[Ac trans Ci fib]
+14.4 +12.6 89 +14 +14 1021.7 1016.9
00 20.08 ЮВ 2 20 км 8/0
[Ci fib]
+11.6 +9.7 88 +10 +10 1021.6 1016.8
03 20.08 ЮВ 2 20 км 8/0
[Ac trans Ci fib]
+13.7 +9.4 75 +13 +14 1021.6 1016.8 +11.2
06 20.08 ЮВ 5 20 км 8/0
[Ci fib]
+20.0 +11.1 57 +21 +24 комфорт 1020.3 1015.6
09 20.08 ЮВ 4 20 км 10/10 930 м
[Cb cap]
+20.5 +11.5 56 +22 +22 комфорт 1020.2 1015.5
12 20.08 ЮВ 4 20 км 10/8 630 м
[Sc Ac und]
+18.5 +13.0 70 +19 +19 1020.3 1015.6
15 20.08 Ю 1 20 км 10/10 700 м
[Sc]
+18.2 +14.0 76 +20 +20 1020.3 1015.6 +22.4
18 20.08 ЮВ 2 20 км 10/10 800 м
[Sc]
+17.0 +14.2 84 +17 +17 1020.4 1015.7

 

Местоположение метеостанции Ижма (Коми, Россия): широта 65.00 долгота 53.92 высота над уровнем моря 40 м.

В архиве по умолчанию представлена погода в Ижме за последнюю неделю. Архивные данные за месяц целиком и за предыдущие месяцы, начиная с января 2011 года, Вы можете получить, выбрав интересующий диапазон дат из раскрывающегося списка и нажав кнопку "Ввод!".


*Определитесь, кто Вы:
робот инопланетянин человек

Внимание! Время в таблицах - всемирное. Для получения местного времени необходимо прибавить поправку, которая равна 3 ч.

Смотрите также архив погоды в соседних городах и на ближайших метеорологических станциях:

Погода в Ираеле (Коми, Россия) (88 км)
Погода в Кедва-Воме (Коми, Россия) (88 км)
Погода в Усть-Цильме (Коми, Россия) (91 км)
Погода в Мутном Материке (Коми, Россия) (120 км)
Погода в Печоре (Коми, Россия) (150 км)
Погода в Окуневом Носу (Коми, Россия) (152 км)
Погода в Ухте (Коми, Россия) (161 км)
Погода в Усть-Усе (Коми, Россия) (175 км)
Погода в Усть-Щугоре (Коми, Россия) (194 км)
Погода в Усинске (Коми, Россия) (196 км)

Пояснения к столбцам:

Ветер - указаны скорость ветра в м/с - средняя за 10 мин, порывы в срок и между сроками (в фигурных скобках) и направление, откуда дует ветер: С - северный, СВ - северо-восточный, В - восточный, ЮВ - юго-восточный, Ю - южный, ЮЗ - юго-западный, З - западный, СЗ - северо-западный.
Видимость - горизонтальная дальность видимости в метрах или километрах. При видимости от 1 до 10 км при отсутствии осадков обычно наблюдается дымка, при ухудшении видимости до 1 км и менее - туман. В сухую погоду видимость может ухудшаться дымом, пылью или мглою.
Явления - указаны атмосферные явления, наблюдавшиеся в срок или в последний час перед сроком; фигурными скобками обозначены явления, наблюдавшиеся между сроками (за 1-3 часа до срока); квадратными скобками обозначены град или гололедные отложения с указанием их диаметра в мм.
Облачность - указаны через наклонную черту общая и нижняя облачность в баллах и высота нижней границы облаков в метрах; квадратными скобками обозначены формы облаков: Ci - перистые, Cs - перисто-слоистые, Cc - перисто-кучевые, Ac - высококучевые, As - высокослоистые, Sc - слоисто-кучевые, Ns - слоисто-дождевые, Cu - кучевые, Cb - кучево-дождевые. Подробнее классификацию облаков см. в Атласе облаков (PDF).
T - Температура воздуха - температура, измеренная на высоте 2 м над землей.
Td - Температура точки росы - температура, при понижении до которой содержащийся в воздухе водяной пар достигнет насыщения.
f - Относительная влажность воздуха - влажноcть воздуха, измеренная на высоте 2 м над землей.
Te - Эффективная температура - температура, которую ощущает одетый по сезону человек в тени. Характеристика душности погоды. При расчете учитывается влияние влажности воздуха и скорости ветра на теплоощущения человека.
Tes - Эффективная температура на солнце - температура, которую ощущает человек, с поправкой на солнечный нагрев. Характеристика знойности погоды. Зависит от высоты солнца над горизонтом, облачности и скорости ветра. Ночью, в пасмурную погоду, а также при ветре 12 м/с и более поправка равна нулю.
P - Атмосферное давление - приведенное к уровню моря атмосферное давление.
Po - Атмосферное давление - измеренное на уровне метеостанции атмосферное давление.
Tmin - Минимальная температура - минимум температуры воздуха на высоте 2 м над землей.
Tmax - Максимальная температура - максимум температуры воздуха на высоте 2 м над землей.
R - Количество осадков - Количество выпавших осадков за период времени, мм. При наведении курсора мыши на число - период времени, за который выпало указанное количество осадков.
R24 - Количество осадков - Количество выпавших осадков за 24 часа, мм.
S - Снежный покров - Высота снежного покрова, см. При наведении курсора мыши на число - состояние снежного покрова и степень покрытия местности в баллах.